CZ-6A DEB, 54318

Orbit data source: Space-Track

CZ-6A DEB, 54318 is space debris in SSO originally from a launch on Fri, 11 Nov 2022 UTC launched from the Taiyaun Space Center, China (TSC). Debris objects in space refer to the collection of defunct objects orbiting the Earth. Examples of debris include non-operational satellites, rocket bodies, and fragments generated from explosions, collisions, or faulty payload assembly.

Loading next visibility...
Identifier
54318, 2022-151BM
Orbit
SSO
Country
Flag of CNCN / PRC
Related business
Manufacturer
SAST
Mission
Spacecraft
Bus & Motor
Unknown
Mass
Unknown
Launch date (UTC)
2022-11-11 (4 years ago)
Launch vehicle
Unknown
Launch site
Taiyaun Space Center, China (TSC)
Object type
Payload
Rocket body
Debris
Shape & HBR
Unknown shape, 0.1 m
Radar Cross Section
Medium (>0.1 m² and <1 m²)

Expand to show TLE details & history
Last TLE update: 3 days ago

TLE from 3 days ago
0 CZ-6A DEB
1 54318U 22151BM  26170.50644630  .00000748  00000-0  42801-3 0  9993
2 54318  98.8432 170.6568 0050798 335.3383  24.5360 14.11913639184749
Epoch: 2026-06-19T12:09Z
TLE epoch observation values (Epoch: 2026-06-19T12:09:16.960Z)
Latitude
-0.00006°
Longitude
80.6017°
Altitude
822.341 km
Speed
7.459 km/s
True Right ascension
11h 22m 37s
True Declination
0° 00' 00"
Sunlit
Object was in daylight at epoch
Visualization orbit readout
Latitude
Unknown
Longitude
Unknown
Altitude
Unknown
Speed
Unknown
Apparent Right ascension
Unknown
Apparent Declination
Unknown
Sunlit
N/A
Visualization observer readout
Local Sidereal Time
21:55:08
Azimuth
Unknown
Elevation
Unknown
Doppler factor
Unknown
Orbital elements
Apogee altitude
886.724 km
Perigee altitude
813.289 km
Semi-major axis
7,228.143 km
Eccentricity
0.00508
Inclination
98.8432°
RAAN
170.6568°
Arg. of periapsis
335.3383°
True anomaly
24.77913°
Mean anomaly
24.536°
Eccentric anomaly
24.65742°
Mean motion
3.53186 °/min
Orbital period
101.93 mins
BSTAR
0.00042801
Loading maneuver chart data...
Computing Atmospheric mass density...
Loading historical data...
Loading historical data...
Loading historical data...
Loading historical data...
Loading historical data...
Loading historical data...
Loading historical data...

Documentation

Showing up to 5 results
|